Total_Precipitation_Accumulation
0.40 0.61 0.86 1.20 1.59 1.46 1.28 1.34 1.44 1.42 1.51 1.73 1.77 1.76 1.92 2.06 2.19 2.32 2.28 2.23 2.10 2.06 2.00 1.86 1.75 1.62 1.51 1.39 1.30 1.14 1.01 0.90 0.78 0.72 0.63 0.50 0.46 0.46 0.46 0.43 0.40 0.42 0.44
0.51 0.80 1.09 1.54 1.87 1.89 1.87 1.82 1.94 2.08 2.22 2.39 2.63 2.86 3.05 3.22 3.41 3.43 3.11 2.91 2.77 2.62 2.53 2.42 2.29 2.06 1.84 1.61 1.42 1.26 1.14 0.98 0.82 0.76 0.72 0.59 0.44 0.36 0.33 0.31 0.30 0.31 0.35
0.81 1.07 1.30 1.67 1.97 2.04 2.03 2.05 2.19 2.55 2.97 3.29 3.55 3.84 4.00 4.09 3.97 3.74 3.56 3.41 3.28 3.13 2.98 2.81 2.50 2.20 1.96 1.77 1.56 1.35 1.21 1.03 0.85 0.75 0.71 0.64 0.55 0.40 0.29 0.24 0.23 0.22 0.22
0.92 1.19 1.44 1.68 1.94 2.08 2.09 2.27 2.68 3.23 3.68 4.03 4.38 4.78 4.95 4.84 4.59 4.23 3.91 3.68 3.40 3.06 2.80 2.65 2.50 2.24 1.88 1.54 1.27 1.06 0.90 0.78 0.67 0.58 0.51 0.46 0.42 0.41 0.35 0.24 0.19 0.17 0.15
0.72 1.02 1.27 1.46 1.73 1.88 2.06 2.38 2.84 3.42 4.02 4.68 5.18 5.43 5.37 5.15 4.84 4.29 3.80 3.39 3.03 2.72 2.45 2.26 2.05 1.73 1.36 1.03 0.80 0.63 0.54 0.49 0.44 0.40 0.38 0.37 0.35 0.34 0.35 0.30 0.20 0.18 0.18
0.52 0.64 0.81 1.04 1.27 1.60 1.95 2.29 2.78 3.41 3.92 4.43 4.87 4.94 4.83 4.68 4.31 3.75 3.22 2.88 2.60 2.28 1.90 1.55 1.21 0.95 0.77 0.62 0.52 0.43 0.36 0.32 0.29 0.27 0.26 0.25 0.25 0.26 0.28 0.28 0.22 0.18 0.16
0.42 0.48 0.57 0.81 1.09 1.33 1.66 2.05 2.42 2.89 3.27 3.57 3.87 3.95 3.90 3.76 3.56 3.18 2.76 2.40 1.98 1.63 1.33 1.02 0.80 0.60 0.47 0.38 0.31 0.26 0.23 0.20 0.19 0.18 0.18 0.18 0.17 0.16 0.16 0.17 0.18 0.16 0.13
0.39 0.47 0.59 0.74 0.99 1.21 1.45 1.63 1.87 2.17 2.28 2.31 2.45 2.57 2.53 2.48 2.39 2.20 1.99 1.75 1.44 1.11 0.86 0.65 0.50 0.40 0.33 0.27 0.23 0.19 0.18 0.17 0.16 0.15 0.14 0.13 0.13 0.13 0.13 0.14 0.15 0.16 0.15
0.40 0.47 0.55 0.64 0.77 0.93 1.03 1.09 1.18 1.34 1.39 1.44 1.44 1.48 1.50 1.48 1.39 1.23 1.07 0.92 0.76 0.60 0.49 0.40 0.32 0.26 0.23 0.20 0.20 0.19 0.17 0.16 0.14 0.12 0.11 0.10 0.10 0.10 0.11 0.12 0.14 0.18 0.19
0.41 0.44 0.50 0.54 0.60 0.66 0.72 0.77 0.78 0.85 0.91 0.97 0.98 0.97 0.96 0.90 0.80 0.71 0.63 0.55 0.47 0.40 0.36 0.31 0.26 0.22 0.18 0.14 0.13 0.13 0.12 0.11 0.11 0.11 0.11 0.11 0.10 0.10 0.10 0.11 0.12 0.14 0.19
0.42 0.47 0.49 0.44 0.43 0.44 0.48 0.53 0.57 0.59 0.61 0.62 0.64 0.63 0.59 0.54 0.51 0.47 0.43 0.38 0.31 0.26 0.22 0.20 0.17 0.15 0.13 0.12 0.12 0.12 0.12 0.13 0.12 0.12 0.11 0.11 0.11 0.11 0.09 0.09 0.10 0.10 0.14
0.52 0.54 0.51 0.43 0.40 0.42 0.42 0.42 0.43 0.45 0.47 0.41 0.39 0.39 0.35 0.32 0.29 0.27 0.25 0.22 0.20 0.17 0.15 0.14 0.13 0.12 0.12 0.11 0.10 0.10 0.10 0.10 0.10 0.09 0.09 0.08 0.08 0.10 0.09 0.09 0.09 0.10 0.13
0.78 0.67 0.57 0.50 0.47 0.44 0.40 0.37 0.33 0.32 0.34 0.31 0.27 0.27 0.26 0.25 0.22 0.19 0.17 0.16 0.15 0.14 0.14 0.13 0.11 0.11 0.10 0.09 0.09 0.09 0.09 0.08 0.08 0.07 0.07 0.07 0.07 0.08 0.09 0.11 0.12 0.12 0.13
0.85 0.71 0.61 0.55 0.50 0.46 0.40 0.34 0.30 0.25 0.24 0.25 0.23 0.20 0.18 0.18 0.17 0.16 0.14 0.13 0.12 0.11 0.10 0.10 0.09 0.09 0.08 0.07 0.06 0.06 0.06 0.06 0.06 0.05 0.05 0.05 0.06 0.07 0.10 0.12 0.14 0.17 0.20
0.87 0.76 0.68 0.64 0.59 0.52 0.46 0.38 0.32 0.27 0.22 0.22 0.23 0.22 0.19 0.17 0.16 0.16 0.14 0.13 0.11 0.09 0.07 0.05 0.04 0.03 0.02 0.02 0.02 0.02 0.02 0.03 0.03 0.03 0.03 0.03 0.03 0.06 0.10 0.12 0.16 0.22 0.26
1.05 0.90 0.79 0.71 0.67 0.61 0.56 0.52 0.46 0.41 0.34 0.29 0.29 0.28 0.24 0.20 0.17 0.14 0.12 0.09 0.06 0.04 0.02 0.02 0.01 0.01 0.01 0.00 0.00 0.00 0.01 0.02 0.03 0.04 0.04 0.03 0.03 0.04 0.07 0.10 0.15 0.22 0.27
1.20 1.06 1.01 0.94 0.88 0.79 0.71 0.64 0.55 0.44 0.36 0.31 0.27 0.23 0.19 0.15 0.11 0.08 0.06 0.05 0.05 0.04 0.03 0.02 0.02 0.03 0.01 0.00 0.00 0.00 0.01 0.03 0.06 0.08 0.08 0.06 0.04 0.08 0.11 0.10 0.09 0.12 0.14
1.32 1.24 1.14 1.02 0.95 0.84 0.69 0.51 0.39 0.31 0.26 0.22 0.18 0.14 0.10 0.07 0.05 0.04 0.04 0.05 0.05 0.05 0.05 0.04 0.04 0.05 0.02 0.00 0.00 0.00 0.02 0.05 0.07 0.08 0.09 0.11 0.13 0.10 0.08 0.07 0.08 0.13 0.20
1.19 1.13 1.05 0.97 0.86 0.69 0.50 0.35 0.26 0.21 0.17 0.16 0.13 0.09 0.06 0.05 0.04 0.04 0.05 0.05 0.07 0.07 0.05 0.04 0.06 0.08 0.06 0.01 0.00 0.00 0.02 0.05 0.06 0.07 0.07 0.07 0.11 0.09 0.09 0.09 0.14 0.20 0.28
0.90 0.90 0.81 0.71 0.60 0.45 0.32 0.25 0.21 0.18 0.15 0.12 0.09 0.06 0.05 0.05 0.05 0.05 0.06 0.06 0.07 0.08 0.06 0.06 0.07 0.09 0.09 0.02 0.00 0.01 0.02 0.04 0.05 0.07 0.11 0.09 0.08 0.10 0.10 0.09 0.17 0.27 0.31
0.68 0.65 0.58 0.51 0.41 0.30 0.24 0.23 0.20 0.17 0.13 0.09 0.08 0.06 0.04 0.04 0.05 0.06 0.08 0.07 0.07 0.08 0.08 0.09 0.10 0.11 0.06 0.02 0.01 0.01 0.02 0.04 0.06 0.11 0.16 0.18 0.12 0.10 0.09 0.09 0.18 0.27 0.29
0.52 0.48 0.43 0.36 0.28 0.23 0.21 0.20 0.18 0.14 0.11 0.10 0.09 0.08 0.06 0.03 0.04 0.08 0.10 0.08 0.08 0.10 0.10 0.11 0.13 0.12 0.08 0.03 0.01 0.01 0.02 0.03 0.07 0.16 0.18 0.18 0.15 0.12 0.12 0.14 0.22 0.29 0.41
0.33 0.29 0.25 0.24 0.22 0.19 0.18 0.19 0.14 0.10 0.08 0.10 0.11 0.09 0.06 0.05 0.04 0.06 0.09 0.08 0.09 0.08 0.06 0.08 0.11 0.10 0.10 0.07 0.02 0.01 0.02 0.04 0.08 0.16 0.20 0.20 0.18 0.20 0.30 0.32 0.36 0.46 0.63
0.21 0.20 0.19 0.20 0.20 0.18 0.17 0.17 0.13 0.11 0.13 0.14 0.12 0.09 0.08 0.07 0.04 0.03 0.03 0.03 0.04 0.04 0.05 0.08 0.10 0.10 0.10 0.07 0.04 0.04 0.05 0.06 0.10 0.16 0.27 0.36 0.38 0.43 0.53 0.60 0.64 0.67 0.69
0.18 0.20 0.24 0.24 0.18 0.15 0.15 0.13 0.10 0.11 0.15 0.16 0.12 0.11 0.10 0.07 0.06 0.05 0.03 0.02 0.02 0.01 0.02 0.04 0.05 0.07 0.08 0.05 0.06 0.07 0.07 0.08 0.12 0.16 0.28 0.44 0.53 0.59 0.64 0.66 0.67 0.65 0.60
0.18 0.21 0.21 0.16 0.12 0.10 0.10 0.07 0.05 0.06 0.10 0.12 0.10 0.09 0.07 0.06 0.05 0.07 0.07 0.02 0.01 0.01 0.01 0.02 0.03 0.03 0.05 0.05 0.05 0.07 0.09 0.11 0.15 0.20 0.34 0.45 0.52 0.57 0.59 0.59 0.57 0.52 0.49